DW7447 Weather Reports


time (UTC)temp
F
wind
direction
speed
knots
gust
knots
rain 1hr
in
rain 24hr
in
rain mn
in
humidity
%
barometer
mb
20260504081524 49 331 0.9 4.3 0.00 0.43 0.02 93 1015.8
20260504081030 48 331 1.7 4.3 0.00 0.44 0.02 94 1015.8
20260504080526 48 271 0.9 3.5 0.00 0.45 0.02 95 1015.7
20260504050539 45 210 0.0 2.6 0.00 0.61 0.02 99 1014.5
20260504045526 45 210 0.9 2.6 0.00 0.63 0.02 99 1014.5
20260504045020 45 210 0.0 3.5 0.00 0.65 0.02 99 1014.5
20260504044517 45 221 0.9 3.5 0.00 0.65 0.02 99 1014.5
20260504044016 45 351 0.0 2.6 0.00 0.66 0.02 99 1014.5
20260504043511 45 313 0.0 4.3 0.00 0.68 0.02 99 1014.6
20260504043005 45 38 1.7 4.3 0.00 0.69 0.02 99 1014.5
20260504042503 45 38 0.9 3.5 0.00 0.72 0.02 99 1014.6
20260504042003 45 38 0.9 3.5 0.00 0.74 0.02 99 1014.4
20260504041003 45 38 1.7 4.3 0.00 0.77 0.02 99 1014.4
20260504040505 45 38 0.9 4.3 0.00 0.80 0.02 99 1014.4
20260504040003 45 38 1.7 4.3 0.00 0.81 0.02 99 1014.4
20260504035504 45 38 0.9 3.5 0.00 0.84 0.02 99 1014.3
20260504035004 45 38 0.9 3.5 0.00 0.86 0.02 99 1014.5
20260504034505 45 38 0.9 3.5 0.00 0.87 0.02 99 1014.4
20260504034003 45 38 0.9 3.5 0.00 0.89 0.02 99 1014.5
20260504033512 45 38 1.7 3.5 0.00 0.91 0.02 99 1014.6
20260504032504 45 38 0.9 4.3 0.00 0.93 0.02 99 1014.6
20260504032002 45 38 1.7 4.3 0.00 0.94 0.02 99 1014.6
20260504031502 45 38 0.9 4.3 0.00 0.94 0.02 99 1014.6
20260504031004 45 38 1.7 4.3 0.00 0.94 0.02 99 1014.5
20260504030004 45 38 0.9 5.2 0.00 0.95 0.02 99 1014.4
20260504025504 45 38 0.9 5.2 0.00 0.96 0.02 99 1014.3
20260504025003 45 25 0.9 5.2 0.00 0.96 0.02 99 1014.4
20260504024004 45 8 2.6 6.1 0.00 0.96 0.02 99 1014.5
20260504023504 45 18 2.6 6.1 0.00 0.96 0.02 99 1014.5
20260504023004 45 30 1.7 5.2 0.00 0.96 0.02 99 1014.5
20260504022504 45 23 2.6 6.1 0.00 0.96 0.02 99 1014.5
20260504022005 45 10 2.6 6.1 0.01 0.96 0.02 99 1014.5
20260504021504 45 21 3.5 6.1 0.01 0.97 0.02 99 1014.4
20260504021004 45 23 1.7 5.2 0.01 0.97 0.02 99 1014.3
20260504020502 45 23 2.6 5.2 0.01 0.97 0.02 99 1014.2
20260504015502 45 17 2.6 5.2 0.01 0.98 0.02 99 1014.2
20260504015003 45 28 1.7 6.1 0.01 0.98 0.02 99 1014.2
20260504014504 45 55 2.6 6.1 0.01 0.98 0.02 99 1014.1
20260504014004 45 45 3.5 6.1 0.01 0.98 0.02 99 1014.1
20260504013503 45 47 1.7 6.1 0.01 0.98 0.02 99 1014.2
20260504013003 45 52 2.6 6.1 0.01 0.99 0.02 99 1014.1
20260504012504 45 52 2.6 6.1 0.01 1.00 0.01 99 1014.1
20260504012003 45 47 2.6 6.1 0.00 1.00 0.01 99 1014.1
20260504011502 45 54 1.7 5.2 0.00 1.02 0.01 99 1014.1
20260504011004 45 1 2.6 5.2 0.00 1.02 0.01 99 1014.1
20260504010004 45 27 1.7 6.1 0.00 1.02 0.01 99 1014.1
20260504005505 45 0 4.3 6.1 0.00 1.02 0.01 99 1014.1
20260504005006 45 30 0.9 5.2 0.00 1.02 0.01 99 1013.9
20260504004504 45 30 1.7 5.2 0.00 1.03 0.01 99 1014.0
20260504003504 45 27 1.7 5.2 0.00 1.03 0.01 99 1014.0
20260504003004 45 17 1.7 5.2 0.00 1.03 0.01 99 1014.0
20260504002504 45 7 1.7 6.1 0.00 1.03 0.01 99 1014.0
20260504002004 45 30 2.6 6.1 0.00 1.04 0.01 99 1013.9
20260504001502 45 32 2.6 5.2 0.00 1.04 0.01 99 1013.9
20260504001004 45 47 2.6 9.6 0.00 1.05 0.01 99 1013.8
20260504000454 45 10 3.5 9.6 0.00 1.05 0.01 99 1013.8
20260503235950 45 35 3.5 7.0 0.01 1.05 0.01 99 1013.8
20260503235449 45 0 4.3 7.8 0.01 1.06 0.01 99 1013.9
20260503234932 45 28 3.5 7.8 0.01 1.06 0.01 99 1013.9
20260503234430 45 14 3.5 7.0 0.01 1.06 0.01 99 1013.9
20260503233932 45 35 2.6 6.1 0.01 1.06 0.01 99 1013.9
20260503233426 45 59 3.5 6.1 0.01 1.06 0.01 99 1013.9
20260503232925 45 61 1.7 7.0 0.02 1.07 0.01 99 1014.0
20260503232425 45 39 4.3 9.6 0.02 1.07 0.01 99 1013.9
20260503231925 45 54 3.5 9.6 0.02 1.08 0.01 99 1014.0
20260503230925 45 56 3.5 7.0 0.02 1.08 0.01 99 1013.9
20260503230426 45 45 1.7 7.8 0.02 1.07 0.00 99 1013.9
20260503225423 45 32 3.5 7.8 0.02 1.07 1.07 99 1013.9
20260503224925 45 17 3.5 10.4 0.02 1.07 1.07 99 1013.9
20260503224424 45 24 6.1 10.4 0.02 1.07 1.07 99 1013.9
20260503223424 45 1 3.5 7.0 0.02 1.07 1.06 99 1014.0
20260503222925 45 25 3.5 7.0 0.02 1.06 1.06 99 1013.8
20260503222425 45 45 3.5 7.8 0.02 1.06 1.06 99 1013.9
20260503221925 46 11 3.5 7.8 0.02 1.06 1.06 99 1013.8
20260503221424 45 24 2.6 7.0 0.02 1.06 1.06 99 1013.7
20260503220926 45 47 2.6 7.8 0.02 1.06 1.06 99 1013.8
20260503220425 46 7 5.2 9.6 0.01 1.06 1.06 99 1013.7
20260503215925 45 13 5.2 9.6 0.01 1.06 1.06 99 1013.7
20260503215424 45 18 3.5 10.4 0.01 1.06 1.06 99 1013.7
20260503214925 45 51 6.1 11.3 0.01 1.06 1.06 99 1013.7
20260503214425 45 4 5.2 12.2 0.02 1.06 1.06 99 1013.7
20260503213924 46 3 7.0 12.2 0.02 1.06 1.06 99 1013.6
20260503213424 46 18 5.2 10.4 0.01 1.05 1.05 99 1013.5
20260503212925 46 11 4.3 10.4 0.01 1.05 1.05 99 1013.5
20260503212423 46 0 6.1 13.0 0.01 1.05 1.05 99 1013.5
20260503211424 46 28 7.0 13.9 0.01 1.05 1.05 99 1013.5
20260503210923 46 13 7.8 13.9 0.01 1.05 1.05 99 1013.3
20260503205924 46 41 5.2 13.0 0.02 1.05 1.05 99 1013.3
20260503205424 46 3 6.1 13.0 0.02 1.05 1.05 99 1013.3
20260503204926 46 39 4.3 10.4 0.02 1.05 1.04 99 1013.2
20260503204425 46 11 4.3 7.8 0.01 1.04 1.04 99 1013.2
20260503203925 46 20 3.5 11.3 0.02 1.04 1.04 99 1013.1
20260503203424 46 34 5.2 11.3 0.02 1.04 1.04 99 1013.2
20260503202927 46 8 4.3 12.2 0.02 1.04 1.04 99 1013.2
20260503202425 46 28 4.3 12.2 0.02 1.04 1.04 99 1013.0
20260503201926 46 44 7.0 13.9 0.03 1.04 1.04 99 1013.0
20260503200924 46 0 5.2 12.2 0.04 1.04 1.04 99 1012.8
20260503195425 46 56 4.3 13.0 0.04 1.03 1.03 99 1012.8
20260503194425 46 0 4.3 12.2 0.04 1.03 1.03 99 1012.7
20260503193925 46 30 6.1 13.0 0.04 1.02 1.02 99 1012.7
20260503193423 46 13 8.7 13.9 0.04 1.02 1.02 99 1012.6
20260503192925 46 0 6.1 13.9 0.04 1.02 1.02 99 1012.6
20260503192424 46 31 6.1 12.2 0.04 1.02 1.02 99 1012.6
20260503191925 46 8 7.0 13.0 0.03 1.01 1.01 99 1012.5
20260503191424 46 37 7.8 13.0 0.03 1.01 1.01 99 1012.5
20260503190924 46 28 7.0 12.2 0.03 1.00 1.00 99 1012.4
20260503190425 46 17 8.7 13.0 0.03 1.00 1.00 99 1012.3
20260503185925 46 14 5.2 13.9 0.03 1.00 0.99 99 1012.3
20260503185424 46 27 10.4 13.9 0.03 0.99 0.99 99 1012.3
20260503184925 46 21 7.8 13.9 0.03 0.99 0.99 99 1012.3
20260503183923 46 27 7.8 14.8 0.03 0.98 0.98 99 1012.1
20260503183425 46 35 5.2 12.2 0.04 0.98 0.98 99 1012.0
20260503182924 46 17 7.8 13.0 0.04 0.98 0.98 99 1012.0
20260503182424 46 24 7.8 15.6 0.04 0.98 0.98 99 1011.9
20260503181925 47 0 8.7 15.6 0.04 0.98 0.98 99 1012.0
20260503180925 47 17 5.2 12.2 0.04 0.97 0.97 99 1012.0
20260503180425 47 0 3.5 12.2 0.04 0.97 0.97 99 1011.8
20260503175927 47 3 6.1 13.9 0.05 0.93 0.96 99 1011.8
20260503175423 47 11 6.1 13.9 0.04 0.93 0.96 99 1011.8
20260503174924 47 0 7.0 14.8 0.04 0.96 0.96 99 1011.8
20260503174425 47 38 7.8 14.8 0.03 0.95 0.95 99 1011.8
20260503173926 47 10 9.6 15.6 0.04 0.95 0.95 99 1011.8
20260503172923 47 41 8.7 18.2 0.03 0.94 0.94 99 1011.7
20260503172424 47 0 8.7 18.2 0.02 0.93 0.94 99 1011.6
20260503171923 47 13 7.0 17.4 0.02 0.93 0.94 99 1011.6
20260503170925 47 13 7.8 15.6 0.02 0.93 0.93 99 1011.5
20260503170425 47 10 7.8 15.6 0.02 0.93 0.93 99 1011.5
20260503150924 48 34 6.1 11.3 0.02 0.88 0.88 99 1011.2
20260503150423 48 14 5.2 10.4 0.02 0.88 0.88 99 1011.3
20260503130924 49 23 3.5 10.4 0.07 0.82 0.82 99 1011.0
20260503130424 49 6 7.0 10.4 0.06 0.81 0.81 99 1011.1
20260503110429 49 63 5.2 10.4 0.02 0.73 0.73 99 1010.7